Villa Grove, CO

5:53 PM MST on February 22, 2017 (GMT -0700)
Monarch Pass

Weather History for KMYP - August, 2013

Change the Weather History Date:

Tuesday, August 27, 2013

  Actual Average (KGUC) Record (KGUC)
Temperature  
Mean Temperature 55 °F -  
Max Temperature 64 °F 73 °F 82 °F (2001)
Min Temperature 46 °F 40 °F 37 °F (2002)
Degree Days  
Heating Degree Days 10    
Growing Degree Days 5 (Base 50)    
Moisture  
Dew Point 41 °F    
Average Humidity 65    
Maximum Humidity 87    
Minimum Humidity 30    
Precipitation  
Precipitation 0.00 in - - ()
Sea Level Pressure  
Sea Level Pressure 30.79 in    
Wind  
Wind Speed 10 mph (WSW)    
Max Wind Speed 23 mph    
Max Gust Speed 25 mph    
Visibility 10 miles    
Events Rain , Thunderstorm    
Averages and records for this station are not official NWS values.
T = Trace of Precipitation, MM = Missing Value Source: NWS Daily Summary

Daily Weather History Graph

Daily Weather History Graph

Search for Another Location

Airport or City:

Trip Planner

Search our weather history database for the weather conditions in past years. The results will help you decide how hot, cold, wet, or windy it might be!

Date:

Astronomy

Aug. 27, 2013 Rise Set
Actual Time 6:30 AM MDT 7:41 PM MDT
Civil Twilight 6:02 AM MDT 8:08 PM MDT
Nautical Twilight 5:30 AM MDT 8:41 PM MDT
Astronomical Twilight 4:56 AM MDT 9:15 PM MDT
Moon 11:43 PM MDT (8/27) 1:24 PM MDT (8/27)
Length of Visible Light 14h 05m
Length of Day
13h 11m
Waning Gibbous, 56% of the Moon is Illuminated
Aug 27
Waning Gibbous
Aug 28
Last Quarter
Sep 5
New
Sep 12
First Quarter
Sep 19
Full

Hourly Weather History & Observations

Time (MDT) Temp. Windchill Dew Point Humidity Pressure Visibility Wind Dir Wind Speed Gust Speed Precip Events Conditions
12:08 AM 48.2 °F - 42.8 °F 82% 30.82 in 10.0 mi WSW 8.1 mph - N/A   Clear
12:28 AM 46.4 °F 41.1 °F 42.8 °F 87% 30.83 in 10.0 mi WSW 11.5 mph - N/A   Clear
12:48 AM 48.2 °F - 42.8 °F 82% 30.82 in 10.0 mi WSW 11.5 mph - N/A   Clear
1:08 AM 46.4 °F 40.4 °F 42.8 °F 87% 30.81 in 10.0 mi West 13.8 mph - N/A   Clear
1:28 AM 46.4 °F 40.7 °F 42.8 °F 87% 30.81 in 10.0 mi West 12.7 mph - N/A   Clear
1:48 AM 46.4 °F 40.4 °F 42.8 °F 87% 30.81 in 10.0 mi West 13.8 mph - N/A   Scattered Clouds
2:08 AM 46.4 °F 41.5 °F 42.8 °F 87% 30.81 in 10.0 mi WSW 10.4 mph - N/A   Scattered Clouds
2:28 AM 46.4 °F 41.1 °F 42.8 °F 87% 30.81 in 10.0 mi SSW 11.5 mph - N/A   Mostly Cloudy
2:48 AM 46.4 °F 41.5 °F 42.8 °F 87% 30.81 in 10.0 mi WSW 10.4 mph - N/A   Overcast
3:08 AM 46.4 °F 42.4 °F 42.8 °F 87% 30.81 in 10.0 mi SW 8.1 mph - N/A   Overcast
3:28 AM 48.2 °F - 42.8 °F 82% 30.81 in 10.0 mi WSW 9.2 mph - N/A   Mostly Cloudy
3:48 AM 48.2 °F - 42.8 °F 82% 30.81 in 10.0 mi West 12.7 mph - N/A   Scattered Clouds
4:08 AM 48.2 °F - 42.8 °F 82% 30.80 in 10.0 mi West 15.0 mph - N/A   Clear
4:28 AM 48.2 °F - 42.8 °F 82% 30.79 in 10.0 mi West 15.0 mph - N/A   Clear
4:48 AM 48.2 °F - 41.0 °F 76% 30.79 in 10.0 mi West 15.0 mph - N/A   Clear
5:08 AM 48.2 °F - 41.0 °F 76% 30.79 in 10.0 mi West 15.0 mph - N/A   Clear
5:28 AM 48.2 °F - 41.0 °F 76% 30.80 in 10.0 mi West 13.8 mph - N/A   Clear
5:48 AM 48.2 °F - 41.0 °F 76% 30.79 in 10.0 mi West 15.0 mph - N/A   Clear
6:08 AM 48.2 °F - 41.0 °F 76% 30.79 in 10.0 mi West 13.8 mph - N/A   Clear
6:28 AM 48.2 °F - 41.0 °F 76% 30.80 in 10.0 mi West 9.2 mph - N/A   Clear
6:48 AM 46.4 °F 41.9 °F 41.0 °F 81% 30.81 in 10.0 mi West 9.2 mph - N/A   Clear
7:08 AM 48.2 °F - 41.0 °F 76% 30.81 in 10.0 mi WSW 9.2 mph - N/A   Clear
7:28 AM 48.2 °F - 41.0 °F 76% 30.81 in 10.0 mi WSW 8.1 mph - N/A   Clear
7:48 AM 48.2 °F - 41.0 °F 76% 30.81 in 10.0 mi West 6.9 mph - N/A   Clear
8:08 AM 48.2 °F - 41.0 °F 76% 30.81 in 10.0 mi West 4.6 mph - N/A   Clear
8:28 AM 50.0 °F - 41.0 °F 71% 30.81 in 10.0 mi WSW 6.9 mph - N/A   Clear
8:48 AM 51.8 °F - 41.0 °F 67% 30.81 in 10.0 mi WSW 5.8 mph - N/A   Clear
9:08 AM 51.8 °F - 41.0 °F 67% 30.82 in 10.0 mi WSW 4.6 mph - N/A   Clear
9:28 AM 53.6 °F - 42.8 °F 67% 30.83 in 10.0 mi SSW 3.5 mph - N/A   Clear
9:48 AM 53.6 °F - 42.8 °F 67% 30.83 in 10.0 mi SSW 3.5 mph - N/A   Scattered Clouds
10:08 AM 55.4 °F - 42.8 °F 63% 30.83 in 10.0 mi Calm Calm - N/A   Mostly Cloudy
10:28 AM 53.6 °F - 42.8 °F 67% 30.83 in 10.0 mi Calm Calm - N/A   Overcast
10:48 AM 55.4 °F - 42.8 °F 63% 30.83 in 10.0 mi ENE 3.5 mph - N/A   Overcast
11:08 AM 59.0 °F - 42.8 °F 55% 30.83 in 10.0 mi East 8.1 mph - N/A   Overcast
11:28 AM 55.4 °F - 41.0 °F 58% 30.83 in 10.0 mi East 5.8 mph - N/A   Overcast
11:48 AM 55.4 °F - 41.0 °F 58% 30.82 in 10.0 mi East 5.8 mph - N/A   Overcast
12:08 PM 55.4 °F - 41.0 °F 58% 30.81 in 10.0 mi NE 3.5 mph - N/A   Overcast
12:28 PM 55.4 °F - 41.0 °F 58% 30.81 in 10.0 mi Calm Calm - N/A   Overcast
12:48 PM 59.0 °F - 41.0 °F 51% 30.81 in 10.0 mi Calm Calm - N/A   Mostly Cloudy
1:08 PM 57.2 °F - 41.0 °F 55% 30.81 in 10.0 mi East 4.6 mph - N/A   Mostly Cloudy
1:28 PM 59.0 °F - 41.0 °F 51% 30.81 in 10.0 mi East 4.6 mph - N/A   Overcast
1:48 PM 60.8 °F - 41.0 °F 48% 30.80 in 10.0 mi East 5.8 mph - N/A   Mostly Cloudy
2:08 PM 60.8 °F - 41.0 °F 48% 30.80 in 10.0 mi East 8.1 mph - N/A   Scattered Clouds
2:28 PM 64.4 °F - 39.2 °F 40% 30.79 in 10.0 mi SSE 8.1 mph - N/A   Scattered Clouds
2:48 PM 64.4 °F - 35.6 °F 34% 30.79 in 10.0 mi ESE 5.8 mph - N/A   Mostly Cloudy
3:08 PM 64.4 °F - 35.6 °F 34% 30.78 in 10.0 mi SSE 5.8 mph - N/A   Scattered Clouds
3:28 PM 64.4 °F - 33.8 °F 32% 30.78 in 10.0 mi South 8.1 mph 16.1 mph N/A Thunderstorm Scattered Clouds
3:48 PM 64.4 °F - 33.8 °F 32% 30.78 in 10.0 mi SSE 8.1 mph 16.1 mph N/A   Clear
4:08 PM 62.6 °F - 32.0 °F 32% 30.77 in 10.0 mi East 11.5 mph 17.3 mph N/A   Scattered Clouds
4:28 PM 64.4 °F - 32.0 °F 30% 30.77 in 10.0 mi East 6.9 mph - N/A   Mostly Cloudy
4:48 PM 62.6 °F - 33.8 °F 34% 30.75 in 10.0 mi ENE 19.6 mph 25.3 mph N/A Thunderstorm Mostly Cloudy
5:08 PM 60.8 °F - 37.4 °F 42% 30.74 in 10.0 mi ENE 21.9 mph - N/A   Scattered Clouds
5:28 PM 59.0 °F - 39.2 °F 48% 30.74 in 10.0 mi ENE 23.0 mph - N/A   Clear
5:48 PM 59.0 °F - 37.4 °F 45% 30.75 in 10.0 mi ENE 20.7 mph - N/A   Scattered Clouds
6:08 PM 57.2 °F - 42.8 °F 59% 30.76 in 10.0 mi ENE 13.8 mph - N/A Rain Rain
6:28 PM 55.4 °F - 42.8 °F 63% 30.76 in 10.0 mi NE 17.3 mph - N/A   Overcast
6:48 PM 55.4 °F - 42.8 °F 63% 30.75 in 10.0 mi ENE 16.1 mph - N/A   Mostly Cloudy
7:08 PM 55.4 °F - 42.8 °F 63% 30.75 in 10.0 mi ENE 13.8 mph - N/A Thunderstorm Mostly Cloudy
7:28 PM 53.6 °F - 42.8 °F 67% 30.75 in 10.0 mi ENE 13.8 mph - N/A   Mostly Cloudy
7:48 PM 53.6 °F - 42.8 °F 67% 30.76 in 10.0 mi ENE 11.5 mph - N/A   Clear
8:08 PM 53.6 °F - 41.0 °F 62% 30.77 in 10.0 mi ENE 8.1 mph - N/A   Clear
8:28 PM 53.6 °F - 41.0 °F 62% 30.78 in 10.0 mi ENE 4.6 mph - N/A   Clear
8:48 PM 53.6 °F - 42.8 °F 67% 30.78 in 10.0 mi Calm Calm - N/A   Clear
9:08 PM 51.8 °F - 42.8 °F 71% 30.78 in 10.0 mi WNW 10.4 mph - N/A   Clear
9:28 PM 51.8 °F - 41.0 °F 67% 30.79 in 10.0 mi West 11.5 mph - N/A Thunderstorm Clear
9:48 PM 51.8 °F - 41.0 °F 67% 30.79 in 10.0 mi WNW 4.6 mph - N/A   Clear
10:08 PM 53.6 °F - 41.0 °F 62% 30.78 in 10.0 mi NW 3.5 mph - N/A   Clear
10:28 PM 53.6 °F - 41.0 °F 62% 30.78 in 10.0 mi West 4.6 mph - N/A   Clear
10:48 PM 51.8 °F - 41.0 °F 67% 30.78 in 10.0 mi Calm Calm - N/A   Clear
11:08 PM 51.8 °F - 41.0 °F 67% 30.78 in 10.0 mi Calm Calm - N/A   Clear
11:28 PM 51.8 °F - 41.0 °F 67% 30.78 in 10.0 mi ENE 4.6 mph - N/A   Clear
11:48 PM 51.8 °F - 41.0 °F 67% 30.78 in 10.0 mi ENE 3.5 mph - N/A   Clear